BAW2284 LSGG-EGLC

Flight info

Callsign BAW2284
Flight time N/A
Altitude 39000
Route DIPIR T37 IBABA DCT TUTAX DCT OBURO DCT OKRIX DCT CLM DCT KOPOR DCT VESAN L613 SOVAT
Aircraft A20N/M-SDE2E3FGHIRWXY/LB1

Departure

Time 2026-05-06 13:52
Airport Geneva International Airport (LSGG)

Arrival

Time N/A
Airport London City Airport (EGLC)
Time Latitude Longitude Altitude Speed Heading
2026-05-06 13:47 46.24290 6.12081 1366 ft 0 kts 136°
2026-05-06 13:50 46.24291 6.12079 1368 ft 2 kts 136°
2026-05-06 13:50 46.24304 6.12061 1367 ft 3 kts 136°
2026-05-06 13:50 46.24317 6.12043 1369 ft 3 kts 136°
2026-05-06 13:51 46.24329 6.12027 1368 ft 2 kts 165°
2026-05-06 13:51 46.24342 6.12028 1368 ft 0 kts 223°
2026-05-06 13:51 46.24336 6.12017 1368 ft 3 kts 231°
2026-05-06 13:51 46.24335 6.11950 1370 ft 17 kts 275°
2026-05-06 13:52 46.24336 6.11748 1371 ft 24 kts 262°
2026-05-06 13:52 46.24232 6.11516 1374 ft 49 kts 225°
2026-05-06 13:52 46.23747 6.10808 1384 ft 150 kts 225°
2026-05-06 13:52 46.23275 6.09331 2096 ft 186 kts 270°
2026-05-06 13:53 46.23908 6.07510 2995 ft 232 kts 315°
2026-05-06 13:53 46.25350 6.06014 3877 ft 271 kts 321°
2026-05-06 13:53 46.26888 6.04336 5435 ft 278 kts 322°
2026-05-06 13:53 46.28407 6.02700 7468 ft 267 kts 320°
2026-05-06 13:54 46.29867 6.01097 9235 ft 268 kts 319°
2026-05-06 13:54 46.31367 5.99423 10607 ft 280 kts 319°
2026-05-06 13:54 46.32989 5.97588 11349 ft 314 kts 319°
2026-05-06 13:54 46.34820 5.95507 11925 ft 351 kts 319°
2026-05-06 13:55 46.36819 5.93245 12767 ft 374 kts 319°
2026-05-06 13:55 46.38886 5.90923 13881 ft 387 kts 319°
2026-05-06 13:55 46.41048 5.88504 14984 ft 395 kts 320°
2026-05-06 13:55 46.43238 5.86057 16204 ft 399 kts 320°
2026-05-06 13:56 46.45453 5.83579 17371 ft 404 kts 320°
2026-05-06 13:56 46.47701 5.81057 18338 ft 412 kts 321°
2026-05-06 13:56 46.49964 5.78511 19169 ft 419 kts 320°
2026-05-06 13:56 46.52291 5.75889 20045 ft 425 kts 320°
2026-05-06 13:57 46.54642 5.73233 20901 ft 431 kts 321°
2026-05-06 13:57 46.57026 5.70537 21747 ft 436 kts 321°
2026-05-06 13:57 46.59436 5.67808 22512 ft 441 kts 321°
2026-05-06 13:57 46.61840 5.65084 23232 ft 447 kts 321°
2026-05-06 13:58 46.64316 5.62275 23774 ft 455 kts 321°
2026-05-06 13:58 46.66921 5.59564 24360 ft 461 kts 327°
2026-05-06 13:58 46.69653 5.57154 24989 ft 464 kts 328°
2026-05-06 13:58 46.72474 5.54783 25564 ft 469 kts 329°
2026-05-06 13:59 46.75331 5.52437 26190 ft 472 kts 329°
2026-05-06 13:59 46.78204 5.50066 26768 ft 476 kts 329°
2026-05-06 13:59 46.81089 5.47650 27420 ft 477 kts 327°
2026-05-06 13:59 46.83774 5.44927 28214 ft 473 kts 320°
2026-05-06 14:00 46.86181 5.41683 28959 ft 470 kts 311°
2026-05-06 14:00 46.88208 5.37929 29673 ft 468 kts 302°
2026-05-06 14:00 46.89767 5.33773 30348 ft 464 kts 292°
2026-05-06 14:00 46.91127 5.29499 30927 ft 464 kts 296°
2026-05-06 14:01 46.92768 5.25382 31226 ft 472 kts 303°
2026-05-06 14:01 46.94798 5.21668 31805 ft 471 kts 312°
2026-05-06 14:01 46.97089 5.18255 32530 ft 467 kts 314°
2026-05-06 14:01 46.99440 5.14970 33189 ft 466 kts 315°
2026-05-06 14:02 47.01830 5.11760 33769 ft 465 kts 315°
2026-05-06 14:02 47.04237 5.08585 34232 ft 465 kts 315°
2026-05-06 14:02 47.06645 5.05424 34634 ft 465 kts 315°
2026-05-06 14:02 47.09037 5.02280 35009 ft 466 kts 315°
2026-05-06 14:03 47.11460 4.99079 35388 ft 467 kts 315°
2026-05-06 14:03 47.13850 4.95909 35808 ft 467 kts 315°
2026-05-06 14:03 47.16257 4.92702 36240 ft 466 kts 315°
2026-05-06 14:03 47.18662 4.89489 36663 ft 466 kts 315°
2026-05-06 14:04 47.21063 4.86276 37064 ft 466 kts 315°
2026-05-06 14:04 47.23469 4.83050 37463 ft 466 kts 315°
2026-05-06 14:04 47.25839 4.79868 37840 ft 466 kts 315°
2026-05-06 14:04 47.28235 4.76648 38232 ft 466 kts 315°
2026-05-06 14:05 47.30632 4.73422 38606 ft 466 kts 315°
2026-05-06 14:05 47.33039 4.70178 38838 ft 468 kts 315°
2026-05-06 14:05 47.37893 4.63621 38885 ft 482 kts 315°
2026-05-06 14:06 47.40372 4.60268 39260 ft 477 kts 315°
2026-05-06 14:06 47.42782 4.57017 40104 ft 462 kts 315°
2026-05-06 14:06 47.45105 4.53891 40912 ft 449 kts 315°
2026-05-06 14:06 47.47383 4.50838 41710 ft 435 kts 315°
2026-05-06 14:07 47.49592 4.47889 42484 ft 421 kts 315°
2026-05-06 14:07 47.51736 4.45035 43231 ft 407 kts 315°
2026-05-06 14:07 47.53816 4.42278 43930 ft 393 kts 315°
2026-05-06 14:07 47.55829 4.39621 44576 ft 380 kts 315°
2026-05-06 14:08 47.57758 4.37085 45105 ft 369 kts 315°
2026-05-06 14:08 47.59656 4.34598 45569 ft 357 kts 315°
2026-05-06 14:08 47.61494 4.32201 45957 ft 345 kts 315°
2026-05-06 14:08 47.63270 4.29895 46231 ft 335 kts 315°
2026-05-06 14:09 47.66766 4.25378 45990 ft 337 kts 315°
2026-05-06 14:09 47.68561 4.23068 45675 ft 345 kts 315°
2026-05-06 14:09 47.70391 4.20731 45525 ft 346 kts 315°
2026-05-06 14:10 47.72195 4.18457 45629 ft 341 kts 316°
2026-05-06 14:10 47.74037 4.16179 44459 ft 361 kts 317°
2026-05-06 14:10 47.76169 4.13560 40963 ft 434 kts 318°
2026-05-06 14:10 47.78692 4.10464 38490 ft 484 kts 318°
2026-05-06 14:11 47.81191 4.07388 38332 ft 469 kts 318°
2026-05-06 14:11 47.83768 4.04366 38014 ft 471 kts 322°
2026-05-06 14:11 47.89207 3.98809 38479 ft 474 kts 323°
2026-05-06 14:12 47.91937 3.96044 38787 ft 473 kts 323°
2026-05-06 14:12 47.94666 3.93296 38930 ft 471 kts 323°
2026-05-06 14:12 48.00069 3.87873 38900 ft 472 kts 324°
2026-05-06 14:13 48.05534 3.82385 38901 ft 472 kts 323°
2026-05-06 14:13 48.10964 3.76914 38900 ft 472 kts 323°
2026-05-06 14:14 48.16423 3.71399 38899 ft 472 kts 323°
2026-05-06 14:14 48.21883 3.65868 38902 ft 472 kts 323°
2026-05-06 14:15 48.26410 3.61270 38898 ft 472 kts 323°
2026-05-06 14:15 48.31848 3.55734 38906 ft 472 kts 323°
2026-05-06 14:16 48.37264 3.50205 38901 ft 472 kts 323°
2026-05-06 14:16 48.42711 3.44631 38900 ft 471 kts 323°
2026-05-06 14:17 48.48104 3.39097 38903 ft 470 kts 323°
2026-05-06 14:17 48.53476 3.33570 38901 ft 469 kts 323°
2026-05-06 14:18 48.58869 3.28007 38902 ft 469 kts 323°
2026-05-06 14:18 48.64264 3.22427 38889 ft 469 kts 323°
2026-05-06 14:19 48.69659 3.16832 38898 ft 470 kts 323°
2026-05-06 14:19 48.75030 3.11248 38901 ft 470 kts 323°
2026-05-06 14:20 48.80436 3.05613 38902 ft 470 kts 323°
2026-05-06 14:20 48.85840 3.00094 38896 ft 471 kts 326°
2026-05-06 14:21 48.91502 2.95052 38899 ft 472 kts 329°
2026-05-06 14:21 48.97249 2.90144 38907 ft 472 kts 329°
2026-05-06 14:22 49.02933 2.85234 38897 ft 472 kts 328°
2026-05-06 14:22 49.08638 2.80236 38910 ft 472 kts 328°
2026-05-06 14:23 49.14321 2.75220 38911 ft 471 kts 328°
2026-05-06 14:23 49.19993 2.70199 38903 ft 471 kts 328°
2026-05-06 14:24 49.25667 2.65165 38908 ft 471 kts 328°
2026-05-06 14:24 49.31288 2.60168 38908 ft 468 kts 328°
2026-05-06 14:25 49.36920 2.55146 38913 ft 468 kts 328°
2026-05-06 14:25 49.42551 2.50112 38919 ft 468 kts 328°
2026-05-06 14:26 49.48150 2.45093 38922 ft 467 kts 328°
2026-05-06 14:26 49.54099 2.41034 38928 ft 470 kts 339°
2026-05-06 14:27 49.60344 2.38010 38923 ft 470 kts 342°
2026-05-06 14:27 49.66599 2.35201 38921 ft 470 kts 342°
2026-05-06 14:28 49.72897 2.32379 38927 ft 470 kts 342°
2026-05-06 14:28 49.79178 2.29528 38918 ft 470 kts 342°
2026-05-06 14:29 49.85428 2.26667 38916 ft 470 kts 342°
2026-05-06 14:29 49.91697 2.23785 38914 ft 470 kts 342°
2026-05-06 14:30 49.97973 2.20893 38917 ft 470 kts 342°
2026-05-06 14:30 50.04213 2.18011 38924 ft 470 kts 341°
2026-05-06 14:31 50.07337 2.16566 38806 ft 465 kts 341°
2026-05-06 14:31 50.10429 2.15134 38244 ft 462 kts 342°
2026-05-06 14:31 50.13511 2.13705 37497 ft 462 kts 342°
2026-05-06 14:31 50.16592 2.12272 36739 ft 462 kts 342°
2026-05-06 14:32 50.19667 2.10840 36032 ft 461 kts 342°
2026-05-06 14:32 50.22734 2.09411 35345 ft 460 kts 342°
2026-05-06 14:32 50.25799 2.07981 34652 ft 458 kts 342°
2026-05-06 14:32 50.28807 2.06575 33984 ft 457 kts 342°
2026-05-06 14:33 50.31840 2.05156 33153 ft 455 kts 343°
2026-05-06 14:33 50.34850 2.03632 32229 ft 455 kts 338°
2026-05-06 14:33 50.37666 2.01379 31263 ft 455 kts 326°
2026-05-06 14:33 50.40226 1.98457 30273 ft 457 kts 323°
2026-05-06 14:34 50.42865 1.95656 29133 ft 459 kts 324°
2026-05-06 14:34 50.45278 1.92379 27926 ft 460 kts 315°
2026-05-06 14:34 50.47549 1.88838 26697 ft 462 kts 313°
2026-05-06 14:34 50.49809 1.85237 25524 ft 463 kts 313°
2026-05-06 14:35 50.52040 1.81685 24435 ft 463 kts 313°
2026-05-06 14:35 50.54269 1.78151 24098 ft 445 kts 313°
2026-05-06 14:35 50.56416 1.74753 24065 ft 438 kts 313°
2026-05-06 14:35 50.58576 1.71330 24042 ft 441 kts 313°
2026-05-06 14:36 50.60740 1.67902 24021 ft 442 kts 313°
2026-05-06 14:36 50.62912 1.64459 23989 ft 443 kts 313°
2026-05-06 14:36 50.65080 1.61021 23818 ft 439 kts 313°
2026-05-06 14:36 50.67213 1.57633 23026 ft 436 kts 313°
2026-05-06 14:37 50.69371 1.54197 22682 ft 455 kts 313°
2026-05-06 14:37 50.71611 1.50628 22410 ft 459 kts 313°
2026-05-06 14:37 50.73851 1.47057 22147 ft 457 kts 313°
2026-05-06 14:37 50.76081 1.43498 21878 ft 455 kts 313°
2026-05-06 14:38 50.78304 1.39944 21610 ft 453 kts 313°
2026-05-06 14:38 50.80514 1.36405 21353 ft 452 kts 313°
2026-05-06 14:38 50.82703 1.32895 20848 ft 442 kts 313°
2026-05-06 14:38 50.84835 1.29473 20022 ft 433 kts 313°
2026-05-06 14:39 50.86931 1.26102 19209 ft 425 kts 313°
2026-05-06 14:39 50.88986 1.22793 18398 ft 418 kts 313°
2026-05-06 14:39 50.90978 1.19580 17521 ft 411 kts 313°